User: anonymous   Login
Location: Arrakis Observatory
(44.1122°N, 95.7153°W)
Time: 17:57:04
(UTC-05:00)
Language:

Coronas F rocket - Orbit

View from above orbital plane
View from above orbital plane
View from above satellite
View from above satellite

Ground track
Ground track

The orbit data is extracted from the following two-line orbital elements,

1 26874U 01032B   14303.84074791  .00016725  00000-0  24174-3 0  8366
2 26874 082.4731 200.8888 0011405 278.3272 081.6689 15.55706157742362
Epoch (UTC): 30 October 2014 20:10:40
Eccentricity: 0.0011405
inclination: 82.4731°
perigee height: 392 km
apogee height: 408 km
right ascension of ascending node: 200.8888°
argument of perigee: 278.3272°
revolutions per day: 15.55706157
mean anomaly at epoch: 81.6689°
orbit number at epoch: 74236

The dashed part of the orbit path shows where the satellite is in the earth's shadow,  

DLR